Cozumel, Mexico

2:22 AM EST on September 21, 2017 (GMT -0500)
Cozumel

Weather History for MMCZ - October, 2012

Change the Weather History Date:

Sunday, October 21, 2012

  Actual Average Record
Temperature  
Mean Temperature 80 °F -  
Max Temperature 89 °F 84 °F 91 °F (2006)
Min Temperature 71 °F 74 °F 68 °F (2013)
Cooling Degree Days 15    
Growing Degree Days 30 (Base 50)    
Moisture  
Dew Point 72 °F    
Average Humidity 89    
Maximum Humidity 100    
Minimum Humidity 49    
Precipitation  
Precipitation 3.05 in - - ()
Sea Level Pressure  
Sea Level Pressure 29.89 in    
Wind  
Wind Speed 6 mph ()    
Max Wind Speed 16 mph    
Max Gust Speed 17 mph    
Visibility 6.8 miles    
Events Rain    
Averages and records for this station are not official NWS values.
T = Trace of Precipitation, MM = Missing Value Source: Averaged Metar Reports

Daily Weather History Graph

Daily Weather History Graph

Search for Another Location

Airport or City:

Trip Planner

Search our weather history database for the weather conditions in past years. The results will help you decide how hot, cold, wet, or windy it might be!

Date:

Astronomy

Oct. 21, 2012 Rise Set
Actual Time 6:45 AM CDT 6:18 PM CDT
Civil Twilight 6:22 AM CDT 6:41 PM CDT
Nautical Twilight 5:56 AM CDT 7:07 PM CDT
Astronomical Twilight 5:31 AM CDT 7:33 PM CDT
Moon 12:51 PM CDT No Moon Set
Length of Visible Light 12h 18m
Length of Day
11h 33m
Waxing Crescent, 45% of the Moon is Illuminated
Oct 21
Waxing Crescent
Oct 21
First Quarter
Oct 29
Full
Nov 6
Last Quarter
Nov 13
New

Hourly Weather History & Observations

Time (CDT) Temp. Heat Index Dew Point Humidity Pressure Visibility Wind Dir Wind Speed Gust Speed Precip Events Conditions
12:41 AM 75.2 °F - 73.4 °F 94% 29.86 in 6.0 mi ENE 8.1 mph - N/A   Mostly Cloudy
1:50 AM 73.4 °F - 73.4 °F 100% 29.86 in 6.0 mi NNE 5.8 mph - N/A   Mostly Cloudy
2:47 AM 75.2 °F - 73.4 °F 94% 29.85 in 6.0 mi ENE 13.8 mph - N/A   Mostly Cloudy
3:43 AM 73.4 °F - 71.6 °F 94% 29.88 in 6.0 mi East 4.6 mph - N/A   Mostly Cloudy
4:42 AM 73.4 °F - 71.6 °F 94% 29.85 in 6.0 mi Calm Calm - N/A   Mostly Cloudy
5:40 AM 73.4 °F - 73.4 °F 100% 29.87 in 6.0 mi East 6.9 mph - N/A   Mostly Cloudy
6:47 AM 75.2 °F - 73.4 °F 94% 29.87 in 6.0 mi ENE 5.8 mph - N/A   Mostly Cloudy
7:42 AM 77.0 °F - 73.4 °F 89% 29.92 in 6.0 mi East 5.8 mph - N/A   Mostly Cloudy
8:48 AM 75.2 °F - 73.4 °F 94% 29.96 in 5.0 mi SSE 5.8 mph 17.3 mph N/A Rain Rain
9:47 AM 71.6 °F - 71.6 °F 100% 29.99 in 7.0 mi SSE 4.6 mph - N/A Rain Light Rain
10:49 AM 71.6 °F - 71.6 °F 100% 29.98 in 7.0 mi SE 3.5 mph - N/A   Mostly Cloudy
11:46 AM 73.4 °F - 71.6 °F 94% 29.96 in 7.0 mi SSE 3.5 mph - N/A   Mostly Cloudy
12:54 PM 75.2 °F - 73.4 °F 94% 29.88 in 7.0 mi ENE 3.5 mph - N/A   Mostly Cloudy
1:42 PM 89.6 °F 93.4 °F 68.0 °F 49% 29.90 in 7.0 mi ENE 8.1 mph - N/A   Mostly Cloudy
2:42 PM 80.6 °F 85.4 °F 73.4 °F 79% 29.86 in 8.0 mi NE 8.1 mph - N/A   Scattered Clouds
3:43 PM 78.8 °F - 71.6 °F 78% 29.89 in 8.0 mi ENE 10.4 mph - N/A   Scattered Clouds
4:40 PM 80.6 °F 85.4 °F 73.4 °F 79% 29.86 in 8.0 mi ENE 16.1 mph - N/A   Scattered Clouds
5:47 PM 78.8 °F - 73.4 °F 83% 29.86 in 8.0 mi ENE 9.2 mph - N/A   Scattered Clouds
6:43 PM 77.0 °F - 73.4 °F 89% 29.84 in 7.0 mi NE 5.8 mph - N/A   Scattered Clouds
7:47 PM 77.0 °F - 71.6 °F 83% 29.88 in 7.0 mi ENE 6.9 mph - N/A   Scattered Clouds
8:42 PM 77.0 °F - 71.6 °F 83% 29.89 in 7.0 mi ENE 6.9 mph - N/A   Scattered Clouds
9:42 PM 77.0 °F - 73.4 °F 89% 29.90 in 7.0 mi ENE 8.1 mph - N/A   Scattered Clouds
10:41 PM 77.0 °F - 73.4 °F 89% 29.91 in 7.0 mi ENE 10.4 mph - N/A   Scattered Clouds
11:43 PM 77.0 °F - 71.6 °F 83% 29.91 in 7.0 mi NE 6.9 mph - N/A   Scattered Clouds